Find Starlink 33881

NORAD ID: 63779 Int'l Des: 2025-091 Owner: SPXS Country: US Constellation: starlink operational
LEOCIRCULAR

实时位置

正在加载3D地球...

关于 Starlink 33881

正在加载描述...

即将过境

Passes for default location (London). Set your location on the main map for personalized predictions.

高度历史

Loading altitude history...

两行轨道根数

1 63779U 25091E 26132.08821721 .00011313 00000-0 41981-3 0 9997
2 63779 43.0029 54.8845 0000904 269.5481 90.5267 15.27594997 58598
Epoch: May 12, 2026 • Age: 13 hours

当前状态

高度 484.6 km
速度 7.63 km/s
星下点 33.30°N, 88.59°E
发射日期 May 2, 2025
运行时间 1 years
类型 internet

技术详情

分类 Payload
质量 575.00 kg
干质量 530.00 kg
总质量 575.00 kg
长度 0.30 m
直径 4.10 m
跨度 29.00 m
形状 Box + pan
制造商 SPXS
平台类型 Starlink V2MO
阶段状态 In Orbit
所有者/国家 SPXS/US

Most Searched